Wind_Speed
6 7 8 8 8 8 7 7 6 3 3 3 4 3 5 6 6 4 4 8 8 10 10 12 11 12 12 14 12 9 7 13 12 11 12 13 13 12 13 17 13 7 16 24 24
4 5 6 7 7 7 7 6 6 4 3 4 6 5 6 8 8 7 1 9 13 11 14 12 12 14 8 11 4 7 14 12 11 13 14 12 11 17 14 14 16 20 19 19 20
3 3 4 5 5 5 6 5 5 5 4 6 7 6 8 10 11 5 8 11 10 13 15 13 13 16 9 6 6 12 15 11 11 12 13 13 13 14 12 13 14 19 15 17 17
2 3 3 4 4 4 5 5 5 5 5 7 8 9 11 12 3 11 9 11 12 17 16 13 11 8 10 5 7 14 11 12 13 12 12 11 16 14 7 12 14 14 12 15 17
3 3 3 3 4 3 3 4 5 5 6 8 10 11 14 9 6 9 11 13 15 18 8 6 6 8 5 7 5 14 11 12 13 13 11 14 14 7 13 14 18 15 15 15 14
3 3 3 3 4 2 2 3 5 6 7 9 10 12 14 5 7 11 12 12 15 14 4 6 8 5 6 6 5 12 13 12 13 10 11 11 10 6 14 16 18 16 16 15 13
3 3 3 3 3 3 2 3 5 7 8 10 11 13 13 12 10 13 10 11 11 13 4 4 8 3 7 7 9 12 13 13 11 12 9 10 10 10 16 17 17 15 14 14 14
3 3 3 2 3 2 1 3 5 7 9 11 12 15 4 11 14 13 11 7 6 9 5 7 16 10 4 6 11 17 14 18 14 10 9 12 11 12 16 17 16 14 13 12 12
3 4 3 2 1 1 1 4 6 7 8 11 13 14 6 12 15 15 12 4 3 5 7 10 12 8 4 9 12 14 9 16 13 10 10 8 12 13 16 15 15 13 12 12 12
3 4 4 2 1 1 3 4 6 6 8 11 13 14 10 12 13 19 16 11 6 5 4 11 6 3 5 6 6 2 13 8 12 14 9 9 9 15 17 14 14 13 12 12 12
5 5 5 3 2 2 5 9 5 1 9 7 8 6 8 14 15 18 18 12 7 7 6 8 8 13 14 7 4 1 5 5 12 11 14 12 13 15 17 16 15 14 13 13 12
5 6 7 5 5 4 5 5 12 12 9 12 13 17 12 11 12 14 18 15 12 9 8 8 10 10 6 6 3 5 5 5 5 11 15 16 17 15 16 15 15 15 13 14 15
6 6 7 7 7 7 5 6 8 7 6 13 13 13 11 11 14 16 19 18 14 14 13 15 2 3 7 7 8 9 10 6 4 10 11 13 16 18 16 14 14 15 15 15 16
6 7 7 7 9 8 8 8 7 4 3 13 14 14 15 10 14 16 19 17 17 17 17 18 10 9 12 12 10 16 12 6 7 12 3 7 4 2 18 16 14 16 16 17 16
5 5 6 8 7 10 12 9 7 6 6 9 10 12 11 14 6 14 18 20 19 17 16 19 18 10 14 11 13 1 8 10 11 14 14 9 17 6 29 17 16 14 16 17 17
6 6 5 6 10 11 10 8 7 5 5 4 13 14 16 18 12 10 16 19 16 18 19 23 10 19 14 13 9 7 6 9 10 14 21 12 14 12 15 17 16 14 16 18 19
6 5 5 6 9 10 11 9 7 12 3 8 8 11 17 17 19 15 15 19 21 18 21 20 19 13 14 14 13 13 15 14 13 13 13 9 8 12 16 13 12 12 15 18 21
8 8 6 6 8 10 12 9 13 7 9 5 5 10 17 19 19 17 16 19 20 20 18 22 20 21 19 21 17 21 21 22 12 12 10 10 11 12 11 12 12 13 14 17 16
8 7 6 6 8 11 12 15 14 15 9 8 9 11 15 19 19 21 19 21 21 22 20 16 24 15 17 19 18 17 24 22 22 21 15 14 8 6 9 5 8 6 11 16 21
7 3 4 5 8 12 11 18 8 10 6 8 11 9 14 18 20 20 22 17 20 21 21 18 15 15 14 14 18 24 12 20 19 16 17 19 14 14 15 9 8 12 17 26 31
4 3 7 2 7 11 13 13 14 11 7 8 10 14 13 17 19 23 20 21 18 16 18 19 15 15 13 18 21 16 25 23 22 20 11 10 3 9 12 11 11 17 25 37 40
3 1 11 4 3 6 11 12 13 11 9 10 9 9 12 11 21 18 24 21 20 20 16 20 18 23 19 14 17 15 13 19 29 21 23 20 3 8 10 10 12 13 20 30 35
1 5 5 7 3 7 10 10 12 11 13 12 14 13 13 15 13 19 22 8 13 13 15 15 18 23 12 11 14 21 21 21 20 20 21 12 7 9 13 7 9 15 17 24 25
3 2 5 5 7 6 6 7 9 9 11 14 16 16 18 19 16 13 21 10 11 13 18 13 17 21 13 14 16 19 18 13 16 17 17 20 12 13 12 6 9 14 16 21 24
1 5 10 1 6 6 6 6 6 8 10 11 13 17 19 21 21 20 17 15 15 19 16 17 18 16 1 6 8 6 12 10 11 13 18 22 16 14 15 8 8 14 14 15 18
6 5 6 7 8 6 6 3 7 9 11 13 15 16 15 21 22 17 20 16 15 17 16 19 16 8 8 6 6 9 9 11 12 13 15 17 18 6 12 10 10 12 13 14 15
7 7 7 5 6 5 4 5 5 7 7 9 12 13 15 14 20 14 9 13 11 14 18 16 17 13 16 7 8 13 14 14 11 11 13 14 11 12 14 14 14 14 14 13 13
Wind_Direction
263 267 269 269 268 268 266 266 264 254 238 204 209 195 137 119 107 102 145 161 160 152 140 138 117 110 101 99 127 101 103 99 105 122 129 121 127 134 137 120 128 132 163 159 161
269 269 268 270 269 267 264 258 257 240 216 197 193 187 144 117 81 66 96 163 174 163 144 134 125 124 98 120 90 32 106 101 94 118 122 122 126 127 126 128 123 129 151 161 162
280 274 270 271 270 267 264 250 247 233 207 190 185 178 143 102 80 185 102 121 150 166 153 138 130 129 130 127 116 53 100 110 108 117 119 118 124 126 126 136 143 149 156 162 156
291 278 275 273 271 270 262 246 231 225 197 189 177 171 141 104 103 165 115 112 124 142 129 139 126 123 147 153 136 119 108 109 114 113 116 119 120 130 129 150 158 155 159 158 155
301 287 285 280 278 263 256 235 214 210 194 186 175 169 152 63 169 147 115 112 120 130 112 132 153 161 158 163 90 98 113 114 123 115 118 114 131 120 129 145 148 157 156 156 156
304 295 297 297 291 274 239 217 205 189 194 182 176 166 148 168 209 148 127 115 119 127 151 128 170 162 162 158 105 138 131 135 121 130 118 122 99 102 138 146 148 149 152 155 169
300 293 304 312 302 296 239 196 187 183 186 182 175 165 155 221 196 167 143 126 116 119 74 211 169 168 165 160 134 134 140 139 141 135 136 124 113 110 143 152 149 149 150 159 164
285 284 294 310 315 310 228 174 172 177 178 183 176 167 180 199 185 181 160 158 117 93 143 173 169 148 208 104 155 176 166 154 152 136 164 148 125 129 149 152 150 151 154 153 158
271 267 270 289 333 340 168 160 160 168 174 180 173 171 242 202 185 187 182 170 182 97 100 139 146 152 172 204 193 173 188 140 143 150 160 176 140 147 154 156 160 161 160 158 160
266 255 255 258 262 117 143 151 151 164 168 175 195 170 246 201 191 192 194 182 183 198 118 146 153 169 180 210 283 314 180 136 145 165 159 159 147 159 162 163 170 169 168 170 173
279 243 241 229 221 173 146 136 79 255 180 157 234 176 169 189 206 200 203 196 197 209 208 209 218 220 203 209 182 187 154 128 131 164 174 167 159 167 167 173 175 176 173 175 177
281 264 242 214 207 197 163 153 191 201 211 217 169 205 180 195 207 201 208 202 213 214 215 210 234 214 204 209 222 232 216 179 168 195 202 174 157 166 169 178 186 178 181 177 179
283 262 249 230 211 204 192 178 177 193 184 231 214 213 219 210 205 213 209 211 222 227 220 227 234 192 207 246 256 236 238 217 205 220 220 268 156 165 168 174 187 184 186 182 186
300 277 254 242 222 211 209 188 173 157 236 217 207 204 214 195 220 209 219 208 223 232 234 234 239 238 231 245 252 264 202 236 184 224 239 231 113 192 173 179 186 187 191 183 192
303 290 264 243 232 210 217 205 191 161 265 162 202 199 201 204 231 208 210 208 219 230 223 232 233 244 230 239 232 293 211 213 230 218 232 232 236 141 188 179 193 195 197 193 191
306 295 274 242 230 231 213 202 180 216 245 199 197 216 201 211 220 208 205 206 223 229 237 232 241 229 230 235 213 237 209 217 239 259 235 217 242 176 180 191 193 204 209 196 198
309 286 265 244 232 219 204 179 212 239 215 229 216 210 210 213 211 221 219 213 212 214 223 230 235 234 220 221 227 220 218 221 222 227 243 215 204 124 164 160 169 199 219 216 203
307 294 273 238 223 207 189 186 238 242 233 226 222 218 221 213 219 222 221 222 220 222 239 225 216 226 226 221 228 229 235 246 245 243 246 155 223 156 176 234 230 221 207 219 210
306 286 267 245 218 199 179 212 225 244 231 244 241 241 233 224 228 223 229 231 230 223 237 248 234 215 215 220 224 224 230 246 288 282 277 245 139 145 172 192 277 248 222 201 207
316 309 276 235 205 193 199 223 243 223 216 247 243 246 241 223 222 231 225 235 232 232 230 242 265 213 211 207 226 234 246 239 240 262 273 277 248 165 170 171 193 156 158 192 198
334 61 293 196 182 188 215 229 239 256 242 244 248 248 243 248 234 234 232 232 224 225 226 231 242 210 206 222 225 224 242 242 269 277 291 261 117 106 161 174 251 215 204 199 203
110 326 279 169 162 223 237 240 234 230 265 238 252 245 251 248 244 243 234 235 226 221 227 223 231 239 224 236 226 236 237 229 232 243 254 268 289 148 150 174 260 246 211 212 209
150 235 229 144 209 250 236 246 251 244 243 252 253 249 242 244 256 242 232 202 192 211 222 220 225 244 184 229 236 238 242 257 259 264 268 285 127 152 181 191 244 256 220 210 218
119 256 270 224 237 220 255 252 248 267 255 251 252 247 244 243 239 251 228 221 209 215 223 224 226 238 276 342 247 209 226 234 246 257 254 250 161 166 184 235 280 254 228 222 222
236 241 209 199 238 223 246 263 257 269 272 273 258 249 244 243 237 237 235 231 229 219 220 218 235 253 344 242 273 182 204 213 248 268 282 285 309 195 199 192 262 255 231 217 205
193 209 229 232 249 245 250 249 277 286 282 272 260 255 243 237 229 234 234 229 225 220 210 213 241 224 247 248 248 249 249 254 266 276 281 278 279 199 174 186 227 226 223 218 219
241 226 199 232 227 224 208 259 295 310 311 281 253 246 236 235 220 226 240 233 218 214 209 223 236 210 241 217 245 248 248 240 262 277 280 282 318 191 179 179 180 178 178 199 212
Height
3163 3163 3163 3162 3162 3163 3163 3164 3164 3164 3165 3165 3165 3165 3166 3167 3168 3168 3168 3170 3171 3172 3174 3175 3177 3178 3180 3180 3178 3177 3178 3181 3182 3184 3187 3188 3188 3189 3189 3190 3194 3195 3193 3195 3197
3162 3162 3162 3161 3161 3162 3162 3163 3163 3164 3164 3165 3165 3166 3166 3168 3169 3168 3169 3169 3170 3171 3174 3176 3178 3180 3183 3182 3183 3179 3182 3184 3185 3187 3188 3190 3190 3190 3193 3194 3196 3197 3196 3196 3199
3162 3161 3161 3161 3160 3161 3161 3162 3162 3163 3164 3165 3165 3166 3168 3170 3170 3173 3170 3169 3169 3171 3174 3177 3180 3182 3187 3184 3183 3182 3184 3187 3188 3189 3191 3191 3192 3194 3196 3198 3198 3197 3196 3198 3202
3161 3161 3160 3160 3160 3160 3160 3161 3162 3163 3163 3164 3166 3167 3170 3171 3177 3172 3171 3170 3171 3172 3175 3179 3182 3185 3187 3186 3184 3186 3187 3189 3191 3192 3193 3193 3194 3196 3198 3199 3198 3197 3199 3201 3205
3161 3160 3160 3160 3159 3159 3160 3160 3161 3162 3163 3164 3166 3168 3171 3173 3174 3173 3172 3171 3172 3174 3180 3184 3187 3186 3186 3186 3184 3187 3189 3191 3193 3194 3194 3195 3196 3196 3198 3198 3197 3198 3200 3203 3208
3160 3160 3160 3159 3159 3159 3159 3160 3160 3162 3163 3164 3166 3169 3172 3177 3174 3174 3174 3173 3174 3175 3182 3183 3186 3183 3186 3187 3184 3187 3190 3192 3194 3195 3196 3196 3196 3196 3198 3199 3199 3200 3202 3206 3209
3160 3160 3160 3159 3159 3158 3159 3159 3160 3162 3163 3164 3167 3169 3172 3173 3174 3175 3176 3176 3176 3176 3184 3181 3182 3186 3187 3185 3188 3188 3189 3191 3193 3195 3197 3197 3199 3198 3199 3200 3201 3203 3205 3207 3208
3160 3159 3159 3159 3159 3158 3158 3159 3160 3161 3163 3165 3167 3170 3175 3172 3173 3175 3178 3179 3179 3178 3180 3180 3182 3184 3186 3186 3187 3188 3187 3186 3191 3195 3196 3195 3199 3199 3200 3202 3204 3206 3207 3208 3210
3159 3158 3158 3158 3158 3158 3158 3159 3160 3161 3163 3165 3168 3172 3175 3172 3175 3176 3178 3182 3181 3182 3182 3182 3184 3186 3187 3185 3186 3186 3184 3182 3190 3194 3196 3195 3198 3199 3201 3203 3206 3207 3208 3210 3212
3158 3158 3158 3158 3158 3158 3158 3159 3161 3162 3164 3166 3169 3174 3172 3174 3175 3176 3178 3181 3185 3186 3185 3185 3186 3186 3186 3185 3183 3182 3184 3185 3187 3192 3194 3194 3195 3198 3201 3204 3206 3208 3209 3212 3214
3157 3157 3157 3157 3157 3158 3159 3160 3165 3166 3164 3169 3171 3172 3171 3173 3172 3175 3178 3180 3183 3186 3187 3187 3187 3186 3187 3187 3185 3186 3187 3186 3187 3190 3190 3190 3193 3196 3200 3203 3205 3207 3209 3212 3214
3156 3155 3156 3157 3157 3158 3158 3160 3161 3163 3166 3165 3167 3169 3171 3172 3175 3176 3177 3182 3184 3185 3187 3188 3185 3185 3187 3187 3187 3187 3187 3187 3189 3187 3187 3186 3191 3194 3199 3203 3205 3208 3209 3211 3213
3154 3154 3154 3155 3157 3157 3158 3159 3161 3162 3164 3164 3164 3166 3169 3170 3173 3176 3177 3180 3183 3185 3185 3183 3185 3183 3186 3187 3187 3185 3184 3187 3185 3187 3185 3169 3192 3193 3196 3202 3205 3207 3209 3210 3212
3153 3152 3153 3154 3157 3157 3158 3159 3161 3163 3164 3163 3163 3165 3167 3169 3172 3175 3175 3181 3181 3182 3184 3183 3183 3184 3185 3185 3186 3180 3182 3185 3184 3184 3184 3188 3190 3182 3191 3198 3203 3206 3207 3209 3211
3152 3151 3151 3153 3155 3156 3157 3159 3161 3163 3159 3162 3162 3164 3165 3168 3170 3170 3173 3177 3178 3180 3182 3181 3182 3183 3184 3184 3183 3184 3184 3185 3184 3180 3185 3183 3184 3175 3173 3194 3200 3204 3206 3208 3210
3150 3149 3149 3150 3151 3154 3156 3159 3162 3167 3157 3159 3160 3160 3164 3165 3168 3170 3171 3173 3177 3177 3178 3178 3178 3180 3182 3183 3184 3183 3185 3185 3184 3181 3177 3173 3179 3184 3186 3191 3197 3202 3203 3205 3208
3148 3148 3147 3148 3149 3151 3154 3159 3164 3158 3157 3157 3158 3159 3161 3163 3166 3167 3168 3170 3172 3175 3174 3175 3176 3178 3180 3182 3183 3184 3183 3180 3180 3176 3173 3171 3178 3183 3189 3192 3196 3200 3200 3200 3203
3147 3146 3145 3146 3147 3149 3152 3160 3159 3154 3154 3155 3156 3158 3159 3161 3163 3164 3166 3167 3169 3170 3169 3170 3170 3173 3176 3178 3180 3182 3179 3174 3170 3164 3164 3172 3176 3179 3184 3186 3189 3193 3198 3200 3200
3144 3144 3144 3144 3145 3147 3152 3156 3153 3154 3153 3156 3156 3156 3156 3157 3160 3161 3163 3163 3165 3167 3169 3164 3165 3166 3171 3175 3178 3177 3177 3176 3171 3167 3167 3165 3175 3178 3180 3183 3186 3191 3194 3199 3198
3142 3142 3142 3142 3143 3146 3151 3150 3152 3152 3152 3154 3154 3153 3152 3153 3156 3159 3158 3160 3161 3163 3167 3165 3165 3166 3169 3173 3175 3175 3176 3176 3175 3172 3169 3166 3166 3167 3177 3180 3182 3189 3190 3187 3188
3142 3145 3142 3142 3143 3146 3149 3149 3150 3149 3151 3153 3152 3152 3152 3151 3151 3154 3155 3157 3159 3161 3165 3166 3166 3164 3166 3169 3170 3172 3173 3173 3170 3167 3162 3161 3165 3171 3174 3176 3176 3179 3183 3182 3183
3141 3148 3142 3142 3146 3147 3147 3148 3146 3149 3149 3150 3151 3151 3151 3151 3151 3150 3152 3153 3154 3159 3161 3163 3162 3161 3162 3164 3166 3166 3166 3168 3167 3168 3167 3166 3168 3173 3174 3172 3172 3175 3179 3180 3182
3142 3144 3141 3141 3145 3144 3145 3145 3146 3147 3148 3148 3149 3150 3150 3151 3152 3150 3150 3150 3151 3157 3159 3160 3160 3157 3156 3163 3166 3166 3167 3167 3166 3165 3162 3161 3166 3169 3168 3170 3169 3170 3174 3177 3178
3140 3144 3143 3142 3142 3143 3143 3144 3144 3144 3144 3145 3145 3147 3148 3149 3150 3148 3148 3148 3151 3156 3156 3157 3156 3154 3150 3151 3153 3159 3163 3166 3165 3163 3162 3162 3163 3170 3166 3166 3168 3169 3171 3173 3175
3141 3142 3139 3142 3142 3142 3142 3142 3142 3142 3142 3142 3142 3142 3144 3145 3146 3147 3148 3146 3150 3152 3155 3158 3155 3153 3152 3157 3156 3156 3159 3163 3166 3166 3165 3161 3161 3163 3165 3164 3167 3168 3169 3171 3173
3136 3138 3139 3140 3140 3141 3140 3141 3141 3140 3139 3138 3138 3138 3139 3140 3142 3144 3145 3144 3148 3150 3153 3154 3153 3154 3153 3157 3158 3158 3160 3163 3166 3167 3167 3167 3167 3165 3166 3165 3165 3166 3167 3169 3170
3132 3134 3135 3138 3139 3140 3139 3139 3139 3138 3136 3135 3135 3135 3136 3138 3140 3141 3142 3143 3146 3148 3151 3152 3152 3154 3153 3156 3158 3159 3159 3160 3163 3165 3166 3166 3166 3162 3165 3164 3167 3168 3169 3168 3168